Total_Precipitation_Accumulation
0.87 1.06 1.14 1.24 1.43 1.62 1.87 1.84 1.90 2.07 2.25 2.52 2.53 2.71 3.07 3.46 3.69 3.87 3.97 3.93 3.82 3.76 3.58 3.46 3.48 3.31 3.13 2.94 2.81 2.68 2.56 2.27 2.03 1.94 1.68 1.35 1.17 1.07 1.02 1.01 0.98 0.91 0.88
0.75 1.10 1.19 1.40 1.60 1.76 1.97 2.09 2.15 2.47 2.93 3.33 3.77 4.18 4.47 4.48 4.62 4.66 4.64 4.49 4.34 4.16 3.92 3.87 3.73 3.47 3.28 3.03 2.79 2.61 2.55 2.32 2.14 2.11 2.02 1.63 1.30 1.00 0.78 0.78 0.78 0.75 0.75
0.79 0.98 1.15 1.41 1.62 1.78 1.99 2.14 2.42 3.06 3.85 4.23 4.56 5.11 5.44 5.26 5.05 4.82 4.74 4.65 4.63 4.58 4.33 4.17 3.90 3.62 3.31 3.03 2.76 2.55 2.45 2.36 2.22 2.05 2.11 1.89 1.55 1.17 0.88 0.69 0.64 0.65 0.70
0.85 1.01 1.18 1.40 1.71 2.00 2.07 2.25 2.75 3.50 4.17 4.64 5.19 5.72 5.95 5.97 5.82 5.33 4.89 4.46 4.11 3.92 3.78 3.66 3.48 3.24 2.93 2.71 2.49 2.29 2.19 2.24 2.12 1.98 1.82 1.70 1.49 1.33 1.10 0.83 0.70 0.68 0.71
0.86 0.98 1.10 1.29 1.49 1.77 2.14 2.40 2.94 3.62 4.30 4.98 5.63 6.02 6.23 6.22 5.81 5.01 4.27 3.82 3.51 3.23 3.01 2.88 2.76 2.60 2.43 2.26 2.14 2.06 1.94 1.88 1.78 1.67 1.58 1.52 1.40 1.21 1.09 0.97 0.84 0.81 0.80
0.72 0.83 0.99 1.07 1.35 1.63 1.94 2.36 2.67 3.30 3.97 4.55 5.04 5.21 5.37 5.33 4.92 4.44 3.92 3.52 3.07 2.57 2.21 2.02 1.92 1.82 1.73 1.70 1.68 1.66 1.62 1.56 1.52 1.45 1.37 1.31 1.29 1.22 1.16 1.04 0.96 0.97 0.93
0.70 0.88 1.09 1.02 1.24 1.55 1.88 2.27 2.67 3.06 3.55 4.05 4.50 4.74 4.87 4.69 4.24 3.82 3.41 2.95 2.50 2.08 1.73 1.53 1.44 1.41 1.36 1.29 1.30 1.31 1.28 1.27 1.28 1.27 1.23 1.21 1.18 1.17 1.17 1.23 1.18 1.02 0.88
0.74 0.82 0.97 1.02 1.24 1.45 1.74 2.09 2.41 2.73 2.92 3.10 3.42 3.64 3.79 3.65 3.33 2.88 2.43 2.15 1.90 1.64 1.42 1.27 1.19 1.06 0.94 0.91 0.95 0.99 1.01 1.01 1.09 1.14 1.16 1.19 1.18 1.14 1.10 1.12 1.19 1.23 1.15
0.74 0.78 0.90 0.99 1.19 1.47 1.72 1.97 2.10 2.26 2.41 2.51 2.56 2.61 2.72 2.62 2.39 2.12 1.85 1.59 1.35 1.16 1.02 0.90 0.82 0.77 0.71 0.69 0.72 0.76 0.79 0.83 0.90 0.96 1.03 1.13 1.20 1.21 1.17 1.16 1.17 1.24 1.30
0.78 0.78 0.84 0.89 0.97 1.10 1.35 1.57 1.68 1.75 1.80 1.85 1.89 1.91 1.92 1.84 1.75 1.59 1.40 1.18 1.03 0.88 0.75 0.64 0.57 0.56 0.58 0.59 0.56 0.58 0.60 0.63 0.69 0.76 0.83 0.93 1.03 1.15 1.22 1.28 1.26 1.23 1.22
0.86 0.81 0.80 0.76 0.79 0.84 0.98 1.17 1.30 1.33 1.39 1.46 1.43 1.38 1.44 1.39 1.31 1.26 1.17 1.03 0.92 0.81 0.71 0.63 0.59 0.57 0.53 0.50 0.51 0.50 0.52 0.57 0.59 0.58 0.63 0.71 0.78 0.88 0.97 1.03 1.06 1.08 1.08
0.85 0.76 0.70 0.62 0.64 0.69 0.73 0.82 0.92 0.92 0.97 1.01 1.02 1.07 1.11 1.13 1.08 0.99 0.89 0.75 0.66 0.62 0.58 0.52 0.52 0.53 0.50 0.48 0.47 0.44 0.43 0.42 0.42 0.43 0.48 0.54 0.56 0.64 0.68 0.73 0.79 0.84 0.88
0.95 0.78 0.63 0.53 0.54 0.60 0.63 0.66 0.70 0.72 0.73 0.73 0.76 0.85 0.88 0.91 0.86 0.77 0.74 0.67 0.57 0.52 0.52 0.48 0.47 0.46 0.45 0.42 0.40 0.39 0.34 0.30 0.31 0.32 0.35 0.40 0.42 0.46 0.47 0.51 0.54 0.60 0.69
1.08 0.87 0.72 0.60 0.59 0.63 0.62 0.63 0.63 0.61 0.63 0.64 0.69 0.76 0.76 0.77 0.75 0.66 0.57 0.53 0.49 0.48 0.49 0.45 0.41 0.35 0.32 0.30 0.33 0.35 0.30 0.27 0.26 0.27 0.28 0.31 0.33 0.34 0.37 0.39 0.42 0.49 0.61
1.11 0.97 0.86 0.79 0.71 0.64 0.60 0.62 0.69 0.68 0.69 0.72 0.71 0.71 0.67 0.66 0.65 0.62 0.56 0.50 0.44 0.42 0.40 0.36 0.34 0.30 0.27 0.27 0.28 0.30 0.29 0.27 0.25 0.23 0.22 0.24 0.28 0.31 0.32 0.32 0.38 0.46 0.57
1.05 0.97 0.93 0.92 0.81 0.72 0.64 0.60 0.68 0.72 0.75 0.76 0.72 0.70 0.67 0.64 0.60 0.57 0.55 0.50 0.44 0.37 0.35 0.32 0.30 0.29 0.25 0.27 0.27 0.25 0.30 0.30 0.29 0.25 0.22 0.21 0.21 0.23 0.26 0.28 0.35 0.43 0.47
1.19 1.17 1.18 1.15 1.02 0.88 0.78 0.75 0.76 0.78 0.80 0.83 0.79 0.77 0.70 0.63 0.59 0.51 0.47 0.46 0.46 0.38 0.34 0.29 0.28 0.31 0.30 0.27 0.24 0.24 0.30 0.33 0.33 0.30 0.27 0.22 0.18 0.24 0.27 0.27 0.29 0.33 0.34
1.45 1.45 1.40 1.28 1.15 1.03 0.95 0.87 0.81 0.86 0.90 0.87 0.82 0.74 0.63 0.56 0.53 0.52 0.48 0.43 0.41 0.39 0.36 0.31 0.29 0.30 0.29 0.27 0.25 0.25 0.27 0.33 0.32 0.29 0.29 0.29 0.28 0.26 0.25 0.21 0.23 0.29 0.34
1.44 1.33 1.24 1.19 1.12 1.03 0.95 0.85 0.79 0.77 0.79 0.74 0.69 0.62 0.58 0.56 0.54 0.53 0.53 0.48 0.42 0.38 0.33 0.31 0.31 0.32 0.31 0.28 0.26 0.25 0.25 0.28 0.24 0.21 0.24 0.24 0.25 0.25 0.26 0.23 0.27 0.31 0.37
1.14 1.11 1.05 1.00 0.95 0.88 0.79 0.72 0.68 0.64 0.62 0.58 0.56 0.50 0.50 0.52 0.54 0.49 0.49 0.45 0.41 0.37 0.30 0.30 0.32 0.32 0.33 0.28 0.24 0.24 0.21 0.22 0.19 0.19 0.21 0.23 0.19 0.18 0.17 0.18 0.27 0.37 0.36
0.96 0.94 0.92 0.90 0.79 0.64 0.59 0.61 0.58 0.53 0.44 0.41 0.45 0.47 0.48 0.48 0.47 0.46 0.47 0.45 0.41 0.39 0.35 0.34 0.35 0.33 0.30 0.26 0.22 0.22 0.20 0.18 0.17 0.18 0.21 0.23 0.16 0.13 0.13 0.16 0.25 0.32 0.31
0.81 0.79 0.73 0.66 0.58 0.52 0.54 0.58 0.54 0.43 0.35 0.38 0.45 0.49 0.47 0.41 0.41 0.46 0.47 0.44 0.40 0.37 0.36 0.36 0.36 0.31 0.28 0.24 0.22 0.20 0.18 0.13 0.15 0.19 0.19 0.20 0.17 0.14 0.15 0.18 0.23 0.25 0.33
0.62 0.63 0.57 0.53 0.53 0.53 0.55 0.54 0.48 0.40 0.39 0.42 0.47 0.47 0.43 0.40 0.41 0.44 0.45 0.43 0.39 0.33 0.32 0.34 0.34 0.30 0.27 0.23 0.17 0.15 0.14 0.12 0.12 0.16 0.17 0.18 0.20 0.22 0.30 0.31 0.28 0.32 0.46
0.49 0.51 0.49 0.47 0.51 0.51 0.49 0.47 0.40 0.39 0.43 0.46 0.46 0.45 0.44 0.43 0.39 0.36 0.34 0.36 0.34 0.30 0.29 0.28 0.26 0.24 0.23 0.18 0.12 0.11 0.13 0.12 0.12 0.14 0.21 0.30 0.35 0.37 0.41 0.44 0.48 0.50 0.51
0.50 0.51 0.48 0.45 0.43 0.42 0.39 0.36 0.34 0.37 0.42 0.42 0.40 0.41 0.42 0.40 0.37 0.30 0.26 0.26 0.21 0.14 0.15 0.16 0.14 0.16 0.15 0.10 0.09 0.11 0.12 0.10 0.10 0.13 0.27 0.45 0.49 0.50 0.48 0.46 0.46 0.49 0.46
0.45 0.47 0.42 0.38 0.36 0.33 0.33 0.32 0.30 0.30 0.37 0.39 0.35 0.32 0.32 0.32 0.28 0.25 0.23 0.16 0.10 0.06 0.05 0.05 0.04 0.06 0.09 0.07 0.05 0.07 0.11 0.10 0.12 0.18 0.38 0.48 0.49 0.49 0.45 0.41 0.38 0.37 0.37